Theta_e
288 287 286 285 282 282 281 281 281 281 280 280 280 279 279 278 278 277 277 276 276 276 276 276 276 276 275 274 274 274 273 273 270 272 273 274 273 274 275 276 276 276 276
287 286 285 283 281 280 280 280 280 280 279 279 279 279 278 278 277 277 276 276 276 276 276 276 275 276 274 274 273 273 272 272 271 270 272 272 273 274 274 274 276 277 276
286 285 284 281 281 280 279 279 280 279 279 279 278 278 278 277 277 277 277 276 275 276 275 275 275 274 273 273 272 272 272 274 272 271 271 273 273 274 274 275 275 275 276
285 284 282 281 281 280 280 279 279 279 279 279 278 278 277 277 277 277 276 275 274 275 275 275 274 274 273 273 272 272 273 272 272 271 271 272 273 274 274 272 272 274 274
284 283 282 282 282 281 280 279 279 279 279 278 277 276 276 277 277 276 275 275 275 274 275 275 275 274 277 275 274 273 273 271 271 271 271 271 272 272 271 272 272 273 272
284 283 283 282 281 280 280 279 279 278 278 278 277 276 276 276 281 281 277 275 275 274 274 274 274 274 275 279 279 280 277 271 265 266 270 271 272 272 272 272 272 269 267
283 283 282 282 281 280 279 279 278 277 277 277 277 276 276 275 282 283 281 276 275 274 274 274 274 275 273 273 276 279 279 279 280 276 271 273 272 273 273 272 271 269 268
283 282 282 282 281 280 279 278 278 278 277 276 276 276 276 275 282 283 283 276 275 275 274 274 273 273 273 273 272 272 273 273 274 275 275 275 274 275 275 273 270 269 268
282 282 282 282 281 279 279 278 278 277 277 276 277 276 276 275 282 283 282 277 276 275 274 274 274 273 275 278 275 271 272 273 278 280 280 280 279 278 276 271 264 264 263
282 283 282 282 282 280 280 279 279 278 278 277 277 276 276 276 280 283 282 276 274 274 274 274 277 274 276 278 275 270 270 272 272 270 270 271 272 270 273 271 268 264 264
283 283 282 282 282 282 281 279 278 278 277 276 276 276 275 275 275 282 283 277 276 274 273 273 274 277 279 279 280 274 273 275 273 269 265 266 267 268 268 269 270 268 264
281 280 281 282 282 282 281 280 279 278 277 276 275 274 274 274 275 280 282 283 279 274 273 273 273 277 278 279 279 280 280 280 267 260 260 264 265 266 267 268 269 268 268
282 282 282 283 283 283 282 280 279 279 278 276 274 275 274 272 272 279 280 282 282 279 275 274 277 278 279 279 280 280 277 269 262 259 262 265 266 267 267 267 267 267 267
284 283 283 282 282 282 283 282 280 277 277 277 274 275 274 270 270 271 273 276 279 278 278 276 278 278 278 277 271 274 270 266 265 264 265 265 266 264 263 265 263 263 262
281 279 280 281 281 279 278 279 278 278 279 277 276 274 269 268 270 273 272 268 269 271 268 260 262 266 269 269 268 266 267 267 266 265 264 263 263 263 263 264 262 261 259
273 274 274 274 273 273 272 269 276 275 279 279 276 272 267 273 275 276 278 278 277 276 270 265 266 268 268 268 268 269 267 266 265 264 263 261 262 262 261 261 261 259 258
272 270 270 270 270 269 268 270 267 270 277 278 278 277 275 271 276 277 277 278 279 279 275 274 269 267 265 266 265 265 265 264 265 263 263 263 262 261 258 257 258 259 257
267 268 267 267 267 266 266 265 266 267 266 261 273 275 277 277 276 276 275 272 264 265 262 261 261 262 263 262 261 262 262 262 262 262 261 257 252 254 254 255 256 256 256
264 262 262 260 259 261 260 259 259 258 257 256 258 266 265 272 271 271 269 258 255 257 258 258 257 256 257 256 257 256 254 254 253 252 250 250 251 250 251 254 256 257 257
258 260 259 259 258 258 258 258 257 255 255 254 255 255 255 259 258 256 257 257 252 250 250 250 249 248 247 246 247 248 248 246 247 247 250 252 253 254 254 252 255 256 255
257 257 258 257 256 255 255 256 257 257 256 254 255 259 264 254 253 251 250 249 249 247 247 245 246 245 245 245 245 245 245 249 247 249 251 254 254 251 253 254 255 255 256
255 254 255 255 256 256 254 256 256 256 256 256 253 252 265 253 250 249 246 245 244 244 245 244 245 246 248 246 247 246 247 249 249 252 255 255 253 252 251 253 251 254 255
255 255 254 252 254 256 254 252 253 253 252 251 251 251 249 248 246 244 244 244 243 244 244 242 244 246 247 246 246 249 252 251 250 253 254 252 252 251 250 248 247 250 254
253 254 254 252 253 253 253 250 251 252 251 249 248 247 246 244 243 244 244 244 243 245 244 244 245 247 248 248 248 249 252 251 251 254 254 253 252 251 247 242 246 249 253
252 253 252 251 251 251 250 249 250 248 247 247 245 244 244 244 244 244 245 244 245 246 247 246 246 246 248 249 249 248 249 256 255 255 252 250 250 246 241 242 244 246 250
249 250 249 248 248 246 246 247 246 246 246 246 246 245 245 246 247 246 247 247 248 248 248 247 248 248 249 249 249 252 252 257 256 255 253 249 246 244 242 243 242 245 249
Wind_Speed
13 12 13 11 10 10 10 9 10 10 11 11 11 11 10 9 7 8 6 7 8 7 5 6 5 4 3 3 2 2 2 2 2 3 3 2 2 7 8 7 8 9 9
12 12 13 12 11 11 10 10 10 11 10 11 10 10 9 9 8 9 9 7 8 7 6 5 5 4 4 4 3 3 2 2 2 4 3 3 3 9 9 10 8 8 9
12 14 14 13 14 13 12 12 11 11 11 10 11 11 11 10 9 7 8 8 7 7 6 6 6 5 4 3 3 3 3 3 3 3 5 2 4 7 10 9 11 11 9
14 15 15 15 16 15 14 14 13 12 12 11 10 9 9 9 8 8 8 8 6 6 5 5 5 6 6 5 4 4 4 4 3 3 5 6 6 8 5 9 14 9 12
15 14 15 14 13 12 12 13 12 12 11 10 9 6 7 8 7 9 8 7 7 6 5 5 6 6 8 8 4 5 5 3 3 4 5 5 7 7 8 9 10 12 13
16 15 13 13 12 13 12 12 11 10 9 9 9 9 9 6 14 16 10 7 7 6 6 6 5 6 7 11 11 11 8 4 5 2 4 7 7 7 8 8 8 11 11
15 14 14 15 15 14 12 12 12 11 9 9 8 8 8 6 17 17 16 6 7 6 6 5 5 5 6 5 8 11 11 13 14 7 6 4 7 8 10 10 11 11 12
15 14 14 15 14 13 13 13 12 10 11 9 8 8 7 6 16 17 17 6 5 6 6 6 6 6 6 5 5 6 7 8 8 7 8 7 7 7 8 9 11 11 12
15 16 15 15 15 14 14 14 11 10 8 9 7 7 8 5 18 18 15 7 7 8 6 6 8 7 9 12 8 8 8 9 12 17 17 16 14 17 15 9 5 7 10
16 14 14 15 16 15 14 12 9 9 8 6 6 8 8 8 17 19 16 5 7 6 6 8 14 8 13 15 9 6 9 8 6 4 1 5 8 8 15 8 6 7 7
11 12 12 12 13 13 11 9 9 7 6 6 6 7 8 9 10 20 21 7 7 6 6 6 6 15 17 18 18 8 10 8 8 3 2 4 3 4 5 6 7 6 8
9 10 10 10 8 8 11 8 8 8 8 8 9 7 6 8 13 20 21 21 13 7 7 6 5 14 16 16 14 18 20 18 3 3 1 2 4 5 5 5 7 9 8
10 10 11 11 10 11 12 11 9 11 10 9 8 9 9 7 7 19 19 21 20 11 6 10 14 15 16 15 19 18 8 2 2 0 3 5 4 5 7 6 7 10 10
11 10 9 10 10 10 8 8 9 9 9 8 8 10 8 5 5 5 5 7 15 12 13 5 7 10 11 11 4 8 1 3 3 3 4 3 3 2 5 5 6 7 8
7 7 8 7 9 7 6 7 8 7 10 8 8 7 6 5 6 11 10 5 5 7 2 1 0 2 6 6 5 4 4 3 4 3 4 4 5 5 5 4 5 5 6
6 5 5 5 4 5 5 3 3 6 11 9 8 7 1 5 8 12 14 15 13 13 4 4 5 6 6 6 6 6 3 5 4 3 3 4 5 5 6 5 5 5 7
5 5 4 4 5 6 4 7 5 2 8 9 9 9 9 7 10 9 9 10 13 13 7 5 2 1 1 2 2 2 4 3 3 3 5 5 5 4 4 5 5 5 6
5 5 4 4 4 4 4 4 4 5 5 1 3 5 8 8 7 5 2 7 4 5 2 2 1 1 2 2 2 3 4 3 3 5 5 4 3 3 2 5 5 5 6
4 3 4 3 3 4 4 4 4 4 4 3 1 6 5 7 7 7 9 3 2 1 1 1 1 2 2 1 2 2 2 2 3 3 3 3 3 3 4 5 5 7 8
4 6 5 4 4 4 4 4 4 4 4 3 3 2 1 3 2 2 2 2 2 1 1 2 3 2 3 2 3 3 3 2 3 3 4 4 4 4 5 4 5 6 5
4 4 6 5 4 3 3 4 4 4 4 3 2 1 5 3 3 2 2 1 2 2 3 3 3 3 3 3 3 3 3 4 3 4 4 5 4 4 5 5 5 5 6
4 4 4 4 3 4 4 4 4 4 3 3 1 2 4 3 2 2 2 3 4 4 3 3 3 4 4 4 4 3 4 5 5 5 6 5 4 4 4 4 4 5 5
4 5 4 3 3 4 4 3 3 3 3 3 2 1 1 1 2 3 4 4 3 3 3 3 4 4 4 4 4 5 6 5 5 4 5 4 4 4 4 4 4 4 5
4 4 4 3 3 3 3 3 2 3 3 3 3 3 3 3 4 4 4 4 3 4 3 3 4 6 5 5 4 5 6 4 3 5 6 5 6 5 3 3 4 5 6
3 3 3 3 3 3 2 2 2 2 2 2 2 2 3 3 3 4 4 3 4 4 5 4 4 6 8 9 8 8 7 11 8 7 5 6 8 6 4 4 4 4 6
3 3 3 2 2 2 2 2 3 3 3 3 3 3 3 4 4 4 4 4 4 4 5 4 5 9 9 7 9 10 10 12 11 12 7 6 6 5 4 6 6 5 6
Wind_Direction
168 166 163 164 152 148 154 152 156 152 154 151 152 152 154 153 142 127 125 134 121 124 125 143 152 153 153 162 152 151 167 168 225 276 252 274 269 322 325 323 312 306 309
165 161 164 156 151 155 159 161 162 162 161 155 154 156 157 156 151 144 145 140 140 146 151 148 161 171 174 176 160 181 203 218 221 276 293 322 288 325 314 313 317 312 310
163 164 165 164 164 166 163 166 167 161 163 162 164 167 165 160 155 151 144 149 151 154 156 167 182 186 193 173 182 195 221 241 225 252 291 295 294 319 316 320 324 314 308
171 173 173 176 175 172 169 168 166 168 168 173 175 168 163 157 157 157 158 149 153 157 165 185 186 198 200 184 195 209 220 224 235 259 273 292 305 309 313 326 319 319 314
175 179 184 180 175 169 166 166 167 172 173 170 161 160 161 164 167 164 163 152 157 162 176 198 209 208 211 197 184 212 217 217 232 253 273 290 298 322 325 320 303 312 312
177 180 175 171 169 171 171 170 166 169 167 163 169 167 173 180 182 182 163 160 169 169 188 204 213 211 221 225 242 241 213 189 228 218 256 276 293 311 310 306 311 314 313
180 176 170 169 170 172 166 164 171 173 168 177 175 165 184 185 190 191 186 169 172 184 187 197 208 216 212 216 249 256 264 267 264 260 255 262 297 294 299 307 311 303 293
180 175 171 170 170 163 164 172 172 172 178 175 178 181 184 196 200 201 199 167 181 189 194 201 216 217 208 205 215 237 245 249 258 265 261 263 260 275 296 306 304 302 295
181 181 175 170 166 168 175 176 173 167 172 176 174 177 192 188 208 209 203 172 193 204 200 208 223 222 229 242 232 222 237 244 250 262 271 283 301 305 306 307 296 297 303
187 179 169 169 170 175 177 174 168 174 174 172 176 194 196 203 212 212 209 176 201 198 203 222 226 225 242 246 244 221 252 249 233 239 264 287 291 285 298 288 282 283 296
164 166 172 175 171 170 165 162 154 159 148 174 196 208 199 205 209 218 217 194 209 201 216 223 222 240 246 246 248 226 233 252 250 190 229 239 254 269 266 263 268 283 287
133 141 147 153 149 149 151 150 158 170 187 199 204 213 205 207 210 224 222 224 207 206 220 229 224 241 248 251 254 258 265 271 134 196 241 295 293 286 273 275 283 283 273
127 139 147 152 162 167 171 172 176 189 200 207 206 213 218 203 206 221 229 231 236 230 210 225 236 244 251 257 262 270 280 170 171 139 266 281 270 277 290 291 286 283 282
169 171 169 176 179 182 187 188 187 190 201 207 208 219 216 183 187 194 221 234 242 240 253 257 243 247 247 250 256 265 232 187 191 208 248 266 280 269 277 280 291 302 302
157 150 161 171 176 175 185 185 194 201 204 207 214 202 168 194 206 205 206 203 214 232 219 66 15 236 261 258 247 229 228 211 226 227 246 258 265 270 277 283 285 295 282
129 143 155 147 150 157 150 86 169 168 195 203 180 180 187 185 190 212 220 224 220 221 208 214 233 237 241 248 246 252 208 223 232 227 229 239 255 263 280 282 284 272 284
128 131 128 130 151 156 150 166 153 178 181 193 184 174 177 188 209 208 214 228 238 244 241 243 253 283 273 269 269 260 263 234 245 229 249 236 246 254 270 279 281 282 289
105 121 138 141 141 138 149 148 139 155 146 51 39 112 100 123 118 85 33 44 30 41 70 63 42 329 288 268 243 254 257 247 242 249 244 233 225 218 239 263 272 272 282
102 101 109 107 108 122 121 120 121 132 144 137 47 78 30 84 83 70 68 98 122 26 2 351 229 218 227 253 279 288 277 251 239 238 241 229 231 194 248 249 261 271 282
77 101 95 107 108 107 114 122 114 112 114 119 109 137 69 63 63 53 71 98 116 171 207 215 263 269 262 248 255 243 257 260 253 237 243 236 234 225 243 233 252 269 269
92 84 100 87 90 103 113 118 122 118 122 112 107 149 163 128 153 147 152 160 188 230 239 226 247 246 245 245 237 238 235 253 238 242 239 240 220 230 234 246 259 260 270
69 75 70 92 99 90 99 110 114 118 127 133 135 343 96 80 114 172 235 246 238 220 221 211 239 232 232 224 225 223 239 246 236 233 248 241 227 231 232 243 243 263 267
85 85 72 63 79 95 77 68 98 102 112 109 123 119 44 173 202 220 235 246 245 256 246 208 231 260 242 230 216 219 234 238 226 214 240 232 230 236 216 232 223 249 259
75 85 98 91 82 82 98 99 96 121 136 157 182 201 214 223 234 247 249 254 255 255 237 235 227 237 257 256 236 233 234 233 208 230 229 239 245 239 222 213 221 238 264
72 87 89 100 98 114 113 130 152 173 183 198 210 218 234 242 256 251 251 247 250 254 259 243 233 245 255 256 254 246 240 258 255 224 214 216 237 221 210 210 204 226 252
61 72 85 98 112 132 151 186 219 214 218 227 226 226 227 236 243 248 252 251 252 253 259 251 253 257 260 256 255 257 248 253 246 239 222 212 220 225 203 223 220 225 241